STARLINK-31656, 60286

Orbit data source: Space-Track

STARLINK-31656, 60286 is a payload satellite owned by SpaceX/Seattle (US) in LEO that was launched on Sun, 28 Jul 2024 UTC via an FALCON 9 launch vehicle from the Air Force Eastern Test Range (AFETR). Payload-class satellites include a variety of spacecraft equipped with specific instruments for various scientific and technological missions. These include communications satellites like Starlink; space stations such as the ISS; scientific satellites like the Hubble; Earth observation satellites from companies like Planet Labs, Umbra, and HawkEye 360; GPS; miniature CubeSats for education and research; and military/defense satellites.

Loading next visibility...
Identifier
60286, 2024-132J
Orbit
LEO
Country
Flag of USUS
Related business
Manufacturer
SpaceX/Seattle
Mission
Operational Commercial Communications
Bus & Motor
STARLINK V2M, Unknown motor
Mass
730 kg wet, ~700 kg dry
Launch date (UTC)
2024-07-28 (1 year ago)
Launch vehicle
FALCON 9
Launch site
Air Force Eastern Test Range (AFETR)
Object type
Payload
Rocket body
Debris
Shape & HBR
Box + 2 Pan, 17.7 m
Radar Cross Section
33.884 m², Large (>1 m²)

Expand to show TLE details & history
Last TLE update: 21 hours ago

TLE from 21 hours ago
0 STARLINK-31656
1 60286U 24132J   25295.35345852 -.00000100  00000-0  87592-5 0  9990
2 60286  53.1612 334.7725 0001583  96.9245 263.1936 15.30182303 70389
Epoch: 2025-10-22T08:28Z
TLE epoch observation values (Epoch: 2025-10-22T08:28:58.816Z)
Latitude
0.00001°
Longitude
176.49916°
Altitude
476.296 km
Speed
7.629 km/s
True Right ascension
22h 19m 05s
True Declination
0° 00' 00"
Sunlit
Object was in full shadow at epoch
Visualization orbit readout
Latitude
Unknown
Longitude
Unknown
Altitude
Unknown
Speed
Unknown
Apparent Right ascension
Unknown
Apparent Declination
Unknown
Sunlit
N/A
Visualization observer readout
Local Sidereal Time
00:26:07
Azimuth
Unknown
Elevation
Unknown
Doppler factor
Unknown
Orbital elements
Apogee altitude
476.609 km
Perigee altitude
474.439 km
Semi-major axis
6,853.661 km
Eccentricity
0.00016
Inclination
53.1612°
RAAN
334.7725°
Arg. of periapsis
96.9245°
True anomaly
263.17559°
Mean anomaly
263.1936°
Eccentric anomaly
263.18459°
Mean motion
3.82524 °/min
Orbital period
94.11 mins
BSTAR
0.0000087592
Loading maneuver chart data...
Computing Atmospheric mass density...
Loading historical data...
Loading historical data...
Loading historical data...
Loading historical data...
Loading historical data...
Loading historical data...
Loading historical data...

Documentation

Showing up to 5 results
|